Starlink 30088

operational
NORAD ID: 57462 Int'l Des: 2023-107 Owner: SPXS Country: US Constellation: starlink
LEOCIRCULAR

About Starlink 30088

Description loading...

Live Position

Loading 3D Globe...

Upcoming Passes

Altitude History

Altitude vs Time

uPlot chart will show altitude changes over time

Two-Line Element Set

1 57462U 23107F 26073.91645342 .00007060 00000-0 27283-3 0 9997
2 57462 43.0032 306.8278 0001646 262.4788 97.5876 15.26715581145942
Epoch: Mar 14, 2026 • Age: 28 hours

Current Status

Altitude 485.7 km
Velocity 7.63 km/s
Sub-Earth Point 21.77°N, 115.65°E
Launch Date Jul 28, 2023
Age 2.6 years
Type internet

Technical Details

Classification Payload
Mass 730.00 kg
Dry Mass 700.00 kg
Total Mass 730.00 kg
Length 0.30 m
Diameter 4.10 m
Span 29.00 m
Shape Box + pan
Manufacturer SPXS
Bus Type Starlink V2M
Phase Status In Orbit
Owner/State SPXS/US

Large Constellations

Loading constellations...